Tracking 19795 objects as of 17-Jul-2019
HD Live streaming from Space Station
objects crossing your sky now

METEOR 2-17 DEB

Track METEOR 2-17 DEB now!
10-day predictions


NORAD ID: 28991
Int'l Code: 1988-005F
Perigee: 913.3 km
Apogee: 914.6 km
Inclination: 82.5 °
Period: 103.1 minutes
Semi major axis: 7284 km
RCS: 0.0099 m2 (small)
Launch date: January 30, 1988
Source: Commonwealth of Independent States (former USSR) (CIS)
Launch site: PLESETSK MISSILE AND SPACE COMPLEX (PKMTR)

Note: This is SATELLITE DEBRIS
aabbcc
Your satellite tracking list
Your tracking list is empty




NASA's NSSDC Master Catalog

Two Line Element Set (TLE):
1 28991U 88005F   19196.82031892 +.00000260 +00000-0 +17835-3 0  9994
2 28991 082.5338 131.7755 0000912 005.6167 025.1037 13.96251391711979
Source of the keplerian elements: AFSPC